User: anonymous   Login
Location: Newark
(50.1751°N, 5.6239°W)
Time: 12:32:44
(UTC+00:00)
Language:

Nauka - Orbit

View from above orbital plane
View from above orbital plane
View from above satellite
View from above satellite

Ground track
Ground track

The orbit data is extracted from the following two-line orbital elements,

1 49044U 21066A   21289.53582973  .00006882  00000-0  13428-3 0  9995
2 49044  51.6432 102.7082 0004209 118.5037 316.3696 15.48711192307401
Epoch (UTC): 16 October 2021 12:51:35
Eccentricity: 0.0004209
inclination: 51.6432°
perigee height: 417 km
apogee height: 423 km
right ascension of ascending node: 102.7082°
argument of perigee: 118.5037°
revolutions per day: 15.48711192
mean anomaly at epoch: 316.3696°
orbit number at epoch: 30740

The dashed part of the orbit path shows where the satellite is in the earth's shadow,  

DLR